Wind_Speed
31 33 23 21 23 22 23 24 25 25 29 31 31 29 22 26 21 22 23 21 19 18 20 23 24 21 23 28 31 27 23 26 22 19 17 18 18 22 20 19 18 14 12 10
28 22 17 23 25 25 26 27 29 31 36 33 32 29 27 26 24 19 21 24 23 21 21 23 23 20 21 26 28 22 20 23 17 17 20 18 24 19 25 26 25 20 14 11
24 17 22 23 23 25 24 26 30 33 35 34 33 30 32 25 22 19 21 23 23 21 22 23 20 17 19 24 26 18 17 20 16 13 17 20 24 26 26 25 24 18 18 16
26 23 22 25 27 23 27 26 32 34 35 33 30 33 29 25 23 24 25 26 20 18 20 20 17 15 17 21 23 15 14 18 17 9 9 14 11 21 21 21 22 19 18 18
17 20 24 30 25 27 28 29 32 34 34 32 29 33 27 24 23 22 24 20 17 17 21 17 14 13 14 18 19 13 11 14 10 13 14 14 14 16 13 22 18 16 19 18
22 24 29 30 31 34 34 32 31 34 35 33 27 30 25 24 21 18 16 14 15 14 16 13 13 10 12 14 15 14 6 10 9 8 13 11 15 15 14 18 11 22 14 17
22 22 25 29 34 34 34 32 33 36 35 29 26 27 22 19 18 18 13 14 15 15 12 11 12 9 10 12 12 14 8 5 7 7 9 11 15 13 16 14 19 17 18 20
28 26 21 24 27 29 31 32 34 33 32 28 27 26 20 17 14 18 14 15 18 14 11 10 10 7 9 11 10 11 6 6 4 5 6 9 12 15 16 15 19 16 22 23
28 28 23 26 24 27 26 29 28 30 32 30 26 22 17 13 13 15 12 9 14 12 9 9 8 5 7 9 9 9 7 5 1 3 4 7 8 14 12 11 19 22 25 23
31 32 25 26 28 30 27 27 28 30 32 30 24 19 10 11 12 13 11 13 14 12 8 7 6 4 5 8 8 9 6 5 1 3 3 5 5 9 12 17 15 20 18 17
35 34 29 31 34 28 29 27 30 30 31 29 23 16 8 6 11 16 15 16 15 13 7 6 3 2 4 6 7 8 8 7 2 2 5 6 7 8 12 13 15 13 13 17
36 35 34 30 31 31 32 28 32 31 31 26 25 13 10 10 10 12 13 12 14 9 7 5 2 2 2 4 6 7 9 8 4 4 6 6 6 8 11 8 11 9 10 13
40 42 39 38 39 38 34 32 31 32 32 29 21 9 12 10 12 13 11 8 11 7 5 5 3 2 2 3 4 6 8 9 10 10 5 8 9 10 11 11 12 15 18 19
41 43 45 41 33 33 34 31 31 29 29 26 17 12 11 14 15 16 13 11 10 8 7 5 5 5 1 1 3 4 6 8 8 10 11 11 13 13 13 14 14 16 17 19
47 46 46 42 41 36 34 32 32 29 25 23 14 13 10 16 19 17 15 15 12 10 10 7 6 7 6 3 2 3 5 7 7 7 9 10 10 10 13 14 15 15 18 19
49 48 48 46 42 37 35 35 36 28 28 26 23 20 16 20 18 17 16 15 17 14 13 11 10 9 10 8 6 5 6 6 7 7 7 8 9 11 13 14 14 15 17 18
52 51 50 48 45 40 44 38 34 26 30 29 28 16 20 21 21 17 17 16 16 16 17 14 12 11 11 10 9 8 6 6 5 6 7 8 8 10 13 15 17 17 16 16
54 52 52 52 50 48 40 36 33 31 29 28 25 24 24 19 22 21 19 20 18 18 21 19 15 13 12 12 12 13 9 7 7 6 6 7 8 9 11 14 16 17 17 17
56 55 56 56 55 49 42 38 33 30 25 23 20 21 24 24 28 21 16 19 22 20 20 23 18 18 14 13 15 16 12 11 11 10 9 9 8 9 9 11 13 14 12 11
60 58 58 59 58 51 46 42 34 33 35 25 18 20 27 28 30 14 15 21 22 22 20 23 21 16 17 14 16 18 15 14 13 13 12 11 10 10 9 8 9 9 8 7
67 63 61 61 60 52 51 45 41 38 31 22 25 21 24 26 18 19 26 24 24 18 23 25 23 19 16 18 17 21 19 16 16 14 14 13 13 12 10 9 9 8 7 6
69 67 66 64 62 52 50 48 43 35 29 23 24 29 28 24 19 28 29 31 27 22 21 26 26 25 20 17 18 20 23 21 17 16 15 14 13 13 11 9 9 8 7 7
74 73 70 68 56 53 51 53 45 37 30 25 24 23 22 23 22 27 23 29 28 22 22 27 29 27 22 22 20 21 25 25 22 18 17 16 14 13 11 10 10 9 9 8
77 72 72 68 61 57 60 54 46 42 39 23 29 31 24 24 18 18 29 28 31 28 24 28 31 23 21 21 23 22 24 26 24 25 23 21 19 17 16 15 15 15 14 14
76 74 71 69 64 64 62 61 57 53 45 24 30 23 20 24 18 18 26 30 29 27 26 28 30 27 25 23 26 27 24 23 24 26 27 26 25 23 21 20 20 20 19 19
77 71 74 69 66 65 64 62 60 57 52 42 36 36 31 19 18 19 25 26 26 30 32 30 29 26 28 25 26 28 30 28 25 25 28 28 28 26 24 23 23 23 23 24
Wind_Direction
255 261 273 275 262 254 256 266 259 267 284 278 277 284 292 288 307 313 307 298 292 302 315 323 320 335 338 340 342 350 356 355 358 1 17 22 33 40 42 43 60 43 79 100
252 264 266 256 258 257 253 257 262 269 275 273 275 283 295 294 302 307 301 297 292 295 316 323 317 332 340 342 342 354 358 357 1 3 20 44 45 44 49 64 64 60 77 76
252 256 252 254 260 262 259 258 262 267 270 274 277 281 293 299 295 302 303 306 295 296 312 317 313 330 342 345 343 357 1 3 2 4 55 59 55 44 47 59 66 41 63 76
241 235 243 255 258 265 267 268 264 265 268 273 277 282 288 292 290 292 303 307 293 296 309 316 309 330 344 348 346 2 6 11 12 45 41 35 52 42 59 53 51 67 68 81
256 245 246 250 259 258 262 257 261 266 271 274 280 284 288 287 281 291 302 299 289 304 312 313 309 329 345 348 348 5 14 17 30 22 24 39 68 57 56 24 56 65 73 73
229 225 234 243 246 250 254 260 265 268 271 276 284 283 287 290 304 296 292 300 301 302 311 305 310 324 343 347 345 9 4 21 34 37 21 45 62 51 47 42 60 67 77 88
238 238 236 243 246 251 259 264 265 266 270 280 277 271 286 297 307 293 274 281 297 299 310 300 312 317 341 347 348 357 24 32 29 42 25 49 51 57 52 54 63 67 78 100
236 232 236 244 247 255 258 259 260 266 272 273 272 281 293 293 287 271 271 287 295 299 302 301 311 312 342 346 359 1 37 29 60 48 35 37 61 68 67 49 65 81 78 95
238 236 223 231 235 238 249 252 259 262 268 270 273 275 286 276 261 263 281 290 302 303 291 304 312 309 346 343 1 350 12 26 35 111 42 55 60 64 64 78 77 82 72 95
229 236 216 227 233 239 243 247 252 262 266 275 280 276 256 251 246 256 272 291 294 297 284 307 317 311 346 344 4 3 6 9 359 182 121 92 79 63 57 95 90 93 83 82
229 229 218 223 237 241 244 250 258 260 268 278 283 270 244 237 249 242 271 290 284 279 274 295 302 294 351 344 357 12 13 17 114 86 167 129 121 99 75 86 101 95 88 106
228 229 232 230 236 241 245 252 254 266 270 273 273 267 245 232 254 256 269 304 268 247 254 280 265 269 354 355 2 17 24 50 62 86 163 148 138 116 111 107 105 102 102 106
219 220 224 217 228 234 244 250 258 267 272 272 270 253 220 216 242 242 260 265 273 236 235 260 202 223 341 11 31 31 40 67 65 71 129 123 122 112 107 116 112 103 107 106
221 221 225 230 238 239 244 252 261 268 268 273 266 255 200 219 242 249 247 235 243 217 202 243 200 202 225 80 54 62 63 74 87 87 88 111 111 103 100 106 105 108 110 110
223 223 225 226 228 226 233 241 248 249 256 258 264 230 214 226 241 251 251 245 230 214 206 211 207 193 197 153 109 90 86 80 88 77 88 100 112 110 106 104 111 115 114 112
222 222 226 229 232 228 231 236 243 251 258 256 245 209 206 230 247 261 246 231 228 222 217 209 211 199 196 184 159 132 123 107 94 90 87 91 103 112 115 119 118 117 117 117
221 220 223 228 233 229 230 231 240 249 258 263 259 229 217 221 233 248 224 233 222 227 220 215 222 216 202 197 175 152 145 143 130 110 104 103 104 118 126 127 126 124 123 120
220 219 222 225 229 230 235 231 240 247 255 261 264 243 222 221 226 239 232 235 237 232 242 222 217 226 213 203 184 164 159 166 169 157 143 128 123 127 132 127 122 121 121 121
219 219 221 225 228 232 235 232 231 242 254 259 266 253 227 225 232 245 258 244 226 235 234 221 217 221 217 211 195 180 170 168 173 172 164 152 147 145 149 146 140 134 130 131
221 219 219 221 226 227 233 236 225 230 239 239 258 252 234 231 232 246 230 240 231 224 221 226 224 221 224 214 201 190 182 179 172 171 175 170 172 173 173 170 161 163 166 171
219 218 218 221 223 225 231 231 235 228 238 234 246 244 238 237 228 214 221 220 230 234 225 219 223 217 222 221 208 199 195 196 186 181 181 180 171 168 169 179 185 193 202 212
218 219 217 218 221 223 228 232 232 237 233 230 246 238 242 239 222 218 232 237 225 230 235 230 219 224 220 222 221 212 206 211 198 195 192 188 187 180 181 183 187 184 187 198
217 218 218 219 218 224 229 235 240 239 232 228 229 235 241 238 230 212 233 234 221 234 231 225 220 221 231 228 223 221 219 222 213 214 211 206 205 209 203 209 223 227 233 243
217 218 218 219 215 222 232 238 239 244 239 219 226 227 252 246 243 234 226 232 229 240 223 226 223 221 236 230 220 227 229 227 227 225 227 229 228 232 239 241 242 244 245 250
217 219 216 218 216 222 226 232 240 246 244 228 224 237 237 227 235 241 227 227 236 222 219 213 217 224 224 227 225 230 233 232 232 233 233 234 234 239 246 250 248 248 251 257
217 220 219 214 218 223 226 232 236 241 245 242 238 237 245 232 239 224 232 238 225 216 218 219 223 229 222 217 223 231 233 233 232 233 234 236 238 239 243 247 249 251 256 261
Height
5810 5811 5816 5818 5818 5816 5819 5818 5818 5821 5822 5821 5819 5818 5820 5816 5816 5814 5809 5807 5803 5799 5796 5792 5788 5783 5779 5774 5767 5761 5756 5748 5742 5738 5733 5726 5720 5714 5708 5701 5699 5697 5695 5695
5804 5807 5811 5810 5811 5811 5813 5814 5815 5817 5814 5814 5813 5814 5813 5813 5813 5811 5807 5803 5800 5797 5794 5789 5785 5781 5777 5772 5766 5761 5756 5749 5744 5741 5734 5729 5724 5718 5713 5708 5706 5703 5700 5699
5798 5804 5802 5804 5805 5806 5808 5809 5811 5810 5807 5807 5807 5810 5810 5810 5808 5807 5805 5801 5797 5794 5791 5787 5783 5780 5776 5771 5766 5761 5756 5751 5746 5744 5738 5732 5728 5723 5719 5715 5712 5707 5706 5704
5792 5794 5796 5798 5799 5803 5802 5806 5804 5802 5802 5804 5805 5805 5807 5805 5804 5802 5799 5796 5793 5791 5788 5785 5781 5778 5775 5770 5766 5761 5757 5752 5748 5746 5740 5735 5731 5728 5725 5721 5718 5715 5712 5711
5787 5789 5792 5792 5797 5796 5798 5798 5797 5796 5797 5799 5801 5799 5802 5800 5800 5799 5794 5791 5789 5789 5786 5783 5780 5776 5774 5770 5767 5762 5758 5754 5752 5750 5744 5739 5734 5731 5728 5726 5723 5720 5718 5717
5779 5783 5783 5785 5788 5789 5790 5791 5792 5792 5792 5794 5797 5794 5796 5794 5795 5794 5790 5788 5787 5785 5783 5781 5778 5775 5773 5770 5767 5764 5759 5756 5754 5753 5749 5743 5738 5735 5732 5730 5728 5726 5723 5723
5773 5776 5778 5780 5780 5782 5783 5786 5787 5787 5787 5790 5790 5789 5792 5791 5790 5788 5786 5786 5785 5783 5781 5779 5777 5774 5772 5770 5767 5764 5760 5758 5756 5754 5752 5748 5744 5740 5738 5735 5732 5731 5729 5729
5765 5769 5773 5775 5776 5779 5778 5780 5781 5781 5783 5785 5784 5785 5789 5787 5785 5783 5783 5783 5782 5781 5779 5778 5775 5773 5771 5769 5767 5765 5762 5759 5758 5756 5754 5751 5750 5747 5744 5740 5738 5736 5735 5736
5759 5762 5768 5767 5770 5771 5773 5772 5776 5776 5776 5778 5781 5783 5785 5781 5781 5781 5781 5780 5780 5779 5778 5777 5774 5772 5771 5769 5768 5765 5762 5761 5760 5759 5757 5755 5753 5751 5749 5746 5745 5744 5743 5742
5751 5753 5761 5762 5762 5763 5765 5768 5770 5769 5771 5772 5775 5777 5780 5778 5777 5778 5778 5778 5778 5778 5777 5775 5773 5772 5771 5770 5768 5766 5763 5761 5761 5760 5759 5758 5757 5755 5753 5751 5750 5750 5750 5749
5742 5746 5753 5754 5752 5757 5758 5761 5763 5766 5766 5767 5770 5774 5776 5775 5774 5775 5775 5775 5776 5776 5776 5774 5772 5771 5771 5770 5769 5768 5764 5761 5761 5761 5760 5761 5760 5759 5758 5757 5756 5756 5756 5756
5734 5738 5741 5747 5748 5749 5752 5756 5756 5759 5761 5763 5764 5769 5770 5772 5772 5772 5773 5773 5773 5774 5775 5773 5771 5771 5771 5771 5769 5768 5766 5763 5763 5762 5762 5762 5762 5762 5762 5760 5761 5761 5761 5761
5721 5724 5730 5736 5738 5741 5745 5749 5751 5753 5755 5756 5761 5765 5766 5768 5769 5768 5770 5771 5772 5773 5773 5772 5771 5771 5772 5772 5771 5769 5768 5766 5766 5764 5765 5765 5764 5764 5764 5764 5764 5765 5766 5766
5708 5715 5720 5727 5736 5739 5740 5744 5745 5748 5749 5753 5756 5760 5762 5764 5765 5766 5767 5768 5769 5772 5772 5772 5771 5771 5772 5773 5772 5771 5770 5769 5769 5769 5769 5768 5768 5768 5767 5768 5768 5770 5770 5771
5697 5705 5711 5718 5723 5731 5735 5736 5738 5740 5744 5746 5752 5755 5757 5760 5761 5763 5765 5766 5767 5770 5771 5770 5770 5770 5771 5773 5773 5773 5772 5772 5772 5772 5772 5772 5772 5772 5772 5772 5773 5774 5775 5776
5688 5697 5702 5708 5714 5721 5725 5728 5729 5736 5738 5740 5743 5748 5752 5755 5757 5759 5761 5763 5764 5766 5769 5769 5770 5769 5770 5771 5774 5774 5773 5774 5774 5775 5775 5775 5775 5775 5776 5776 5777 5778 5779 5780
5678 5687 5693 5700 5705 5712 5710 5718 5724 5731 5732 5735 5737 5747 5747 5748 5752 5755 5758 5760 5761 5764 5766 5768 5769 5770 5771 5771 5772 5775 5775 5775 5776 5777 5778 5778 5779 5779 5780 5781 5781 5782 5784 5785
5668 5677 5684 5690 5693 5698 5705 5714 5720 5723 5727 5730 5734 5739 5741 5743 5746 5748 5754 5757 5759 5761 5763 5766 5767 5769 5770 5771 5772 5773 5776 5777 5777 5778 5779 5780 5781 5783 5784 5785 5785 5787 5788 5790
5656 5665 5673 5678 5684 5691 5696 5704 5714 5717 5723 5727 5729 5732 5737 5736 5738 5744 5748 5751 5755 5757 5758 5762 5764 5766 5769 5770 5772 5773 5775 5777 5778 5779 5780 5782 5783 5784 5786 5788 5789 5790 5792 5794
5643 5652 5661 5669 5674 5679 5688 5696 5707 5712 5711 5721 5725 5727 5730 5731 5734 5742 5744 5747 5750 5753 5754 5758 5761 5764 5767 5769 5771 5773 5774 5776 5778 5779 5780 5782 5784 5786 5787 5789 5791 5792 5794 5795
5626 5636 5649 5658 5664 5672 5679 5689 5695 5702 5711 5718 5719 5722 5723 5726 5735 5736 5738 5742 5746 5747 5750 5752 5759 5762 5765 5767 5769 5771 5773 5774 5777 5779 5781 5782 5784 5786 5788 5790 5791 5793 5794 5796
5614 5625 5637 5647 5654 5662 5672 5679 5685 5697 5706 5710 5712 5715 5717 5721 5727 5731 5732 5736 5741 5743 5746 5749 5754 5758 5761 5764 5768 5769 5772 5772 5776 5778 5780 5782 5784 5786 5788 5791 5792 5793 5794 5795
5597 5609 5626 5636 5649 5656 5663 5671 5679 5688 5697 5704 5706 5709 5713 5717 5722 5724 5727 5730 5735 5738 5741 5744 5749 5753 5757 5761 5764 5766 5768 5771 5774 5777 5779 5781 5783 5785 5787 5789 5791 5792 5794 5795
5587 5599 5611 5624 5638 5647 5655 5662 5670 5678 5687 5696 5699 5703 5708 5713 5713 5717 5720 5724 5728 5732 5733 5738 5744 5748 5752 5755 5759 5761 5763 5766 5770 5773 5775 5777 5780 5782 5784 5786 5788 5789 5790 5791
5577 5587 5601 5613 5627 5635 5642 5650 5660 5668 5677 5687 5693 5697 5701 5705 5708 5711 5715 5719 5722 5725 5729 5733 5739 5743 5746 5749 5753 5756 5759 5762 5765 5768 5769 5772 5775 5777 5779 5782 5783 5784 5785 5787
5562 5574 5587 5606 5618 5624 5633 5643 5652 5658 5667 5677 5685 5690 5695 5698 5701 5704 5707 5712 5716 5720 5725 5729 5733 5736 5740 5742 5745 5748 5753 5756 5759 5761 5764 5766 5768 5771 5773 5775 5777 5779 5779 5780